Location: Unspecified
(0.0000°N, 0.0000°E)
Time: 21:32:28
(UTC+01:00)

ATLAS V CENTAUR R/B - Visible Passes

Search period start: 12 February 2016 00:00
Search period end: 22 February 2016 00:00
Orbit: 224 x 28996 km, 18.1° (Epoch: 12 February)

Date Brightness Start Highest point End Pass type
(mag) Time Alt. Az. Time Alt. Az. Time Alt. Az.
12 Feb 6.5 06:08:59 10° SW 06:18:19 42° SSE 13:30:35 10° ENE visible
12 Feb 6.5 22:21:43 10° WNW 22:34:00 27° NW 22:34:00 27° NW visible
17 Feb 6.6 03:42:18 18° SE 03:42:18 18° SE 03:47:52 10° ESE visible
17 Feb 6.4 12:38:37 10° WSW 19:55:28 49° NNW 20:06:10 13° ENE visible
18 Feb 5.9 04:52:07 24° SSW 04:55:24 31° SSE 11:41:29 10° ENE visible
18 Feb 5.6 14:11:34 10° WSW 15:38:23 25° W 21:15:34 37° NNE visible
19 Feb 6.5 06:01:48 10° SW 06:11:53 43° SSE 13:22:52 10° ENE visible
19 Feb 6.2 22:12:14 10° WNW 22:24:24 29° NW 22:24:24 29° NW visible
